KUIPER-00125 (65954 NORAD) Tracking and Keplerian Element Data

This shows tracking and keplerian element data for the satellite.

Feedback or suggestion? Click here.




ElementValue
Catalog65954
NameKUIPER-00125
Epoch Orbit1144
Epoch Day353.40742168
Epoch Year2025
RAAN348.2408
Inclination51.8793
Eccentricity0.0006478
Argument of Perigee42.7726
Mean Anonmoly317.3764
Mean Motion15.36793254
Decay Rate0.00022347
L11 65954U 25228H 25353.40742168 .00022347 00000+0 62051-3 0 9992
L22 65954 51.8793 348.2408 0006478 42.7726 317.3764 15.36793254 11442



Live tracking and technical data element details for KUIPER-00125 (NORAD 65954). KUIPER-00125 can be tracked NOW for your location showing map with azimuth and elevation plus other details from your city location.







IsCatalogInMostPopularTable: catalog: 65954, numindb: 4
Update: records affected: 1



GetName: 65954 KUIPER-00125

Hit Count: updated at: Tue, 21 Apr 2026 20:43:38 GMT